Weather History for Oujda, Morocco

Change the Weather History Date:

Friday, March 15, 2013

  Actual Average Record
Temperature  
Mean Temperature 48 °F -  
Max Temperature 64 °F 68 °F 75 °F (1997)
Min Temperature 31 °F 44 °F 31 °F (2013)
Degree Days  
Heating Degree Days 18    
Moisture  
Dew Point 33 °F    
Average Humidity 65    
Maximum Humidity 87    
Minimum Humidity 19    
Precipitation  
Precipitation 0.00 in 0.06 in - ()
Sea Level Pressure  
Sea Level Pressure 30.07 in    
Wind  
Wind Speed 4 mph ()    
Max Wind Speed 8 mph    
Max Gust Speed -    
Visibility 8.7 miles    
Events      
Averages and records for this station are not official NWS values.
T = Trace of Precipitation, MM = Missing Value Source: Averaged Metar Reports

Daily Weather History Graph

Daily Weather History Graph

Search for Another Location

Airport:

Trip Planner

Search our weather history database for the weather conditions in past years. The results will help you decide how hot, cold, wet, or windy it might be!

Date:

Astronomy

Mar. 15, 2013 Rise Set
Actual Time 6:18 AM WET 6:15 PM WET
Civil Twilight 5:53 AM WET 6:40 PM WET
Nautical Twilight 5:23 AM WET 7:09 PM WET
Astronomical Twilight 4:54 AM WET 7:39 PM WET
Moon 8:09 AM WET (3/15) 10:04 PM WET (3/15)
Length of Visible Light 12h 47m
Length of Day
11h 57m
Waxing Crescent, 14% of the Moon is Illuminated
Mar 15
Waxing Crescent
Mar 19
First Quarter
Mar 27
Full
Apr 3
Last Quarter
Apr 10
New

Hourly Weather History & Observations

Time (WET) Temp. Windchill Dew Point Humidity Pressure Visibility Wind Dir Wind Speed Gust Speed Precip Events Conditions
12:00 AM 35.6 °F 30.7 °F 32.0 °F 87% 30.09 in 6.2 mi SW 5.8 mph - N/A   Scattered Clouds
2:00 AM 32.0 °F 28.7 °F 28.4 °F 87% 30.06 in 6.2 mi West 3.5 mph - N/A   Scattered Clouds
3:00 AM 32 °F - 28 °F 80% 30.15 in 6 mi SSW 5.8 mph - -   Scattered Clouds
3:00 AM 32.0 °F 26.4 °F 28.4 °F 87% 30.06 in 6.2 mi SSW 5.8 mph - N/A   Scattered Clouds
4:00 AM 32.0 °F - 28.4 °F 87% 30.06 in 6.2 mi Calm Calm - N/A   Scattered Clouds
5:00 AM 32.0 °F - 28.4 °F 87% 30.06 in 6.2 mi East 2.3 mph - N/A   Scattered Clouds
6:00 AM 34 °F - 29 °F 75% 30.16 in 12 mi West 4.6 mph - -   Scattered Clouds
6:00 AM 33.8 °F 28.6 °F 30.2 °F 87% 30.06 in 6.2 mi WSW 5.8 mph - N/A   Scattered Clouds
7:00 AM 33.8 °F - 28.4 °F 81% 30.09 in - Variable 2.3 mph - N/A   Clear
8:00 AM 39.2 °F 37.0 °F 33.8 °F 81% 30.09 in - ESE 3.5 mph - N/A   Clear
9:00 AM 47 °F - 35 °F 51% 30.15 in 12 mi Calm Calm - -   Clear
9:00 AM 48.2 °F - 35.6 °F 62% 30.12 in - Calm Calm - N/A   Clear
10:00 AM 53.6 °F - 32.0 °F 44% 30.12 in - Variable 2.3 mph - N/A   Clear
11:00 AM 57.2 °F - 33.8 °F 41% 30.09 in - East 5.8 mph - N/A   Clear
12:00 PM 59 °F - 32 °F 24% 30.08 in 12 mi NE 4.6 mph - -   Clear
12:00 PM 59.0 °F - 33.8 °F 39% 30.09 in - NE 4.6 mph - N/A   Clear
2:00 PM 62.6 °F - 33.8 °F 34% 30.04 in - NE 4.6 mph - N/A   Clear
3:00 PM 64 °F - 32 °F 19% 30.00 in 16 mi East 3.5 mph - -   Clear
3:00 PM 64.4 °F - 32.0 °F 30% 30.04 in - Variable 3.5 mph - N/A   Clear
5:00 PM 62.6 °F - 35.6 °F 37% 30.01 in - ENE 8.1 mph - N/A   Clear
7:00 PM 53.6 °F - 41.0 °F 62% 30.04 in - Calm Calm - N/A   Clear
9:00 PM 45 °F - 40 °F 78% 30.09 in 9 mi SSW 5.8 mph - -   Clear
9:00 PM 44.6 °F 41.4 °F 41.0 °F 87% 30.04 in - SSW 5.8 mph - N/A   Clear
10:00 PM 42.8 °F 39.3 °F 39.2 °F 87% 30.04 in - SW 5.8 mph - N/A   Clear
11:00 PM 42.8 °F 40.1 °F 39.2 °F 87% 30.04 in - WSW 4.6 mph - N/A   Clear